Showing default

SHIYAN 24C 02, 58651

Orbit data source: Space-Track

SHIYAN 24C 02, 58651 is a payload satellite owned by CASC (CN) in SSO that was launched on Mon, 25 Dec 2023 UTC via a CHANG ZHENG 11 launch vehicle from the South China Sea Launch Area (SCSLA). Payload-class satellites include a variety of spacecraft equipped with specific instruments for various scientific and technological missions. These include communications satellites like Starlink; space stations such as the ISS; scientific satellites like the Hubble; Earth observation satellites from companies like Planet Labs, Umbra, and HawkEye 360; GPS; miniature CubeSats for education and research; and military/defense satellites.

Loading next visibility...
Identifier
58651, 2023-206B
Orbit
SSO
Country
Flag of CNCN / PRC
Related business
Manufacturer
SECM?
Mission
Operational Defense Technology
Bus & Motor
Unknown
Mass
~80 kg wet, ~80 kg dry
Launch date (UTC)
2023-12-25 (2 years ago)
Launch vehicle
CHANG ZHENG 11
Launch site
South China Sea Launch Area (SCSLA)
Object type
Payload
Rocket body
Debris
Shape & HBR
Box + 4 Pan, 4.0 m
Radar Cross Section
8.634 m², Medium (>0.1 m² and < 1m²)

Expand to show TLE details & history
Last TLE update: 6 hours ago

TLE from 6 hours ago
0 SHIYAN 24C 02
1 58651U 23206B   26130.74690649  .00001344  00000-0  11823-3 0  9995
2 58651  97.4061 100.4672 0000763 193.9740 166.1462 14.98060539129703
Epoch: 2026-05-10T17:55Z
TLE epoch observation values (Epoch: 2026-05-10T17:55:32.720Z)
Latitude
-0.00006°
Longitude
-36.96468°
Altitude
576.465 km
Speed
7.572 km/s
True Right ascension
06h 41m 52s
True Declination
0° 00' 00"
Sunlit
Object was in daylight at epoch
Visualization orbit readout
Latitude
Unknown
Longitude
Unknown
Altitude
Unknown
Speed
Unknown
Apparent Right ascension
Unknown
Apparent Declination
Unknown
Sunlit
N/A
Visualization observer readout
Local Sidereal Time
08:10:07
Azimuth
Unknown
Elevation
Unknown
Doppler factor
Unknown
Orbital elements
Apogee altitude
570.415 km
Perigee altitude
569.354 km
Semi-major axis
6,948.021 km
Eccentricity
0.00008
Inclination
97.4061°
RAAN
100.4672°
Arg. of periapsis
193.974°
True anomaly
166.14829°
Mean anomaly
166.1462°
Eccentric anomaly
166.14725°
Mean motion
3.74758 °/min
Orbital period
96.06 mins
BSTAR
0.00011823
Loading maneuver chart data...
Computing Atmospheric mass density...
Loading historical data...
Loading historical data...
Loading historical data...
Loading historical data...
Loading historical data...
Loading historical data...
Loading historical data...
Other satellites on launch #206 in the year 2023 (2023-12-25 UTC)

Documentation

Showing up to 5 results
|